Elko, NV

2:05 AM PDT on March 24, 2017 (GMT -0700)
Elko Regional

Weather History for KEKO - July, 2013

Change the Weather History Date:

Tuesday, July 2, 2013

  Actual Average Record
Temperature  
Mean Temperature 82 °F 68 °F  
Max Temperature 103 °F 87 °F 103 °F (2013)
Min Temperature 61 °F 48 °F 34 °F (1911)
Degree Days  
Heating Degree Days 0 1  
Month to date heating degree days 0 2  
Since 1 June heating degree days 63 133  
Since 1 July heating degree days 0 2  
Cooling Degree Days 17 4  
Month to date cooling degree days 34 8  
Year to date cooling degree days 161 59  
Since 1 June cooling degree days 157 55  
Growing Degree Days 32 (Base 50)    
Moisture  
Dew Point 42 °F    
Average Humidity 30    
Maximum Humidity 48    
Minimum Humidity 12    
Precipitation  
Precipitation T in 0.01 in 0.27 in (1938)
Month to date precipitation T 0.02  
Year to date precipitation 2.86 5.56  
Snow  
Snow 0.00 in 0.00 in 0.00 in (1888)
Month to date snowfall 0.0 0.0  
Since 1 June snowfall 0.0 0.0  
Since 1 July snowfall 0.0 0.0  
Snow Depth 0.00 in    
Sea Level Pressure  
Sea Level Pressure 29.97 in    
Wind  
Wind Speed 6 mph (NE)    
Max Wind Speed 24 mph    
Max Gust Speed 29 mph    
Visibility 10 miles    
Events Thunderstorm    
T = Trace of Precipitation, MM = Missing Value Source: NWS Daily Summary

Daily Weather History Graph

Daily Weather History Graph

Search for Another Location

Airport or City:

Trip Planner

Search our weather history database for the weather conditions in past years. The results will help you decide how hot, cold, wet, or windy it might be!

Date:

Astronomy

Jul. 02, 2013 Rise Set
Actual Time 5:16 AM PDT 8:18 PM PDT
Civil Twilight 4:42 AM PDT 8:51 PM PDT
Nautical Twilight 4:00 AM PDT 9:33 PM PDT
Astronomical Twilight 3:10 AM PDT 10:23 PM PDT
Moon 1:22 AM PDT (7/2) 3:35 PM PDT (7/2)
Length of Visible Light 16h 08m
Length of Day
15h 02m
Waning Crescent, 25% of the Moon is Illuminated
Jul 2
Waning Crescent
Jul 8
New
Jul 15
First Quarter
Jul 22
Full
Jul 29
Last Quarter

Hourly Weather History & Observations

Time (PDT) Temp. Dew Point Humidity Pressure Visibility Wind Dir Wind Speed Gust Speed Precip Events Conditions
12:56 AM 77.0 °F 41.0 °F 28% 29.97 in 10.0 mi East 5.8 mph - N/A   Clear
1:56 AM 73.9 °F 42.1 °F 32% 29.98 in 10.0 mi East 4.6 mph - N/A   Clear
2:56 AM 66.0 °F 43.0 °F 43% 29.99 in 10.0 mi South 4.6 mph - N/A   Clear
3:56 AM 63.0 °F 42.1 °F 46% 30.00 in 10.0 mi West 3.5 mph - N/A   Clear
4:56 AM 63.0 °F 43.0 °F 48% 29.99 in 10.0 mi Calm Calm - N/A   Clear
5:56 AM 64.9 °F 43.0 °F 45% 30.01 in 10.0 mi East 3.5 mph - N/A   Clear
7:56 AM 73.0 °F 51.1 °F 46% 30.01 in 10.0 mi Calm Calm - N/A   Clear
8:56 AM 79.0 °F 44.1 °F 29% 30.01 in 10.0 mi Calm Calm - N/A   Clear
9:56 AM 89.1 °F 44.1 °F 21% 29.98 in 10.0 mi Calm Calm - N/A   Clear
10:56 AM 93.9 °F 43.0 °F 17% 29.96 in 10.0 mi NNE 4.6 mph - N/A   Clear
11:56 AM 98.1 °F 41.0 °F 14% 29.94 in 10.0 mi ENE 6.9 mph - N/A   Clear
12:56 PM 100.0 °F 39.0 °F 12% 29.93 in 10.0 mi Calm Calm - N/A   Clear
1:56 PM 100.0 °F 39.0 °F 12% 29.90 in 10.0 mi Variable 5.8 mph - N/A   Partly Cloudy
2:43 PM 100.4 °F 37.4 °F 11% 30.11 in 10.0 mi Variable 4.6 mph - N/A Thunderstorm Scattered Clouds
2:56 PM 102.0 °F 41.0 °F 12% 29.90 in 10.0 mi NNW 18.4 mph 28.8 mph N/A   Partly Cloudy
3:09 PM 98.6 °F 42.8 °F 15% 30.12 in 10.0 mi NNW 18.4 mph - N/A   Scattered Clouds
3:56 PM 95.0 °F 42.1 °F 16% 29.92 in 10.0 mi North 15.0 mph - 0.00 in   Partly Cloudy
4:04 PM 96.8 °F 41.0 °F 15% 30.12 in 10.0 mi North 11.5 mph 20.7 mph N/A Thunderstorm Clear
4:24 PM 96.8 °F 39.2 °F 14% 30.11 in 10.0 mi North 13.8 mph - N/A   Clear
4:56 PM 97.0 °F 41.0 °F 14% 29.90 in 10.0 mi NE 13.8 mph 20.7 mph N/A   Clear
5:56 PM 98.1 °F 39.9 °F 13% 29.87 in 10.0 mi ENE 8.1 mph - N/A   Clear
6:56 PM 95.0 °F 41.0 °F 15% 29.87 in 10.0 mi East 9.2 mph - N/A   Clear
7:56 PM 91.0 °F 42.1 °F 18% 29.88 in 10.0 mi East 4.6 mph - N/A   Clear
8:56 PM 88.0 °F 39.9 °F 18% 29.89 in 10.0 mi West 9.2 mph - N/A   Clear
9:56 PM 86.0 °F 42.1 °F 21% 29.89 in 10.0 mi South 6.9 mph - N/A   Clear
10:56 PM 81.0 °F 44.1 °F 27% 29.91 in 10.0 mi Calm Calm - N/A   Clear
11:56 PM 82.9 °F 44.1 °F 25% 29.93 in 7.0 mi Calm Calm - N/A   Clear